Starlink 30972

operational
NORAD ID: 58721 Int'l Des: 2024-002 Owner: SPXS Country: US Constellation: starlink
LEOCIRCULAR

Starlink 30972について

説明を読み込み中...

リアルタイム位置

3D地球を読み込み中...

次回通過

高度履歴

Altitude vs Time

uPlot chart will show altitude changes over time

軌道要素

1 58721U 24002S 25351.11221113 -.00001973 00000-0 -54508-4 0 9997
2 58721 53.1596 253.4032 0001309 87.3745 272.7405 15.30197145109373
Epoch: Dec 17, 2025 • Age: 16 hours

現在のステータス

高度 476.0 km
速度 7.63 km/s
衛星直下点 27.55°N, 91.25°W
打ち上げ日 Jan 3, 2024
運用期間 1.9 years
タイプ internet

技術仕様

分類 Payload
質量 730.00 kg
乾燥質量 700.00 kg
総質量 730.00 kg
長さ 0.30 m
直径 4.10 m
スパン 29.00 m
形状 Box + pan
製造者 SPXS
バスタイプ Starlink V2M
フェーズステータス In Orbit
所有者/国 SPXS/US

大規模コンステレーション

Loading constellations...